Hourly Data Report for November 14, 2017

CARBERRY CS
MANITOBA

49°54'20.900" N
99°21'26.800" W
383.50 m
5010547
71170
WZE

Download Data

Hourly Data (November 2017)
Hourly Data Report for November 14, 2017
TIME
LST
Temp Definition
°C
Dew Point Definition
°C
Rel Hum Definition
%
Precip. Amount Definition
mm

Wind Dir Definition
10's deg

Wind Spd Definition
km/h
Visibility Definition
km
Stn Press Definition
kPa
Hmdx Definition


Wind Chill Definition


Weather Definition


00:00 -6.0 -6.8 94 0.0 16 13   96.46   -11 LegendNANA
01:00 -5.4 -6.6 91 0.0 16 10   96.37   -10 LegendNANA
02:00 -6.1 -7.0 94 0.0 19 8   96.29   -10 LegendNANA
03:00 -5.8 -6.4 96 0.0 20 7   96.24   -9 LegendNANA
04:00 -6.9 -7.6 95 0.0 19 9   96.17   -11 LegendNANA
05:00 -6.2 -7.2 93 0.0 18 6   96.12   -9 LegendNANA
06:00 -5.8 -6.5 95 0.0 19 10   96.05   -10 LegendNANA
07:00 -6.9 -7.5 95 0.0 28 16   96.14   -13 LegendNANA
08:00 -5.9 -6.7 94 0.0 21 10   96.06   -10 LegendNANA
09:00 -4.3 -6.1 87 0.0 26 15   96.04   -10 LegendNANA
10:00 -2.1 -4.6 83 0.0 20 11   96.04   -6 LegendNANA
11:00 -0.4 -3.2 82 0.0 25 15   96.10   -5 LegendNANA
12:00 1.1 -2.8 75 0.0 25 16   96.04     LegendNANA
13:00 2.2 -2.1 73 0.0 26 17   96.01     LegendNANA
14:00 3.2 -2.4 67 0.0 27 19   96.10     LegendNANA
15:00 2.7 -2.6 68 0.0 28 14   96.11     LegendNANA
16:00 1.7 -3.0 71 0.0 27 12   96.09     LegendNANA
17:00 -1.0 -3.8 82 0.0 27 15   96.20   -6 LegendNANA
18:00 -1.6 -4.2 82 0.0 32 12   96.26   -6 LegendNANA
19:00 -6.7 -7.2 96 0.0 1 13   96.37   -12 LegendNANA
20:00 -5.6 -6.1 96 0.0 31 8   96.49   -9 LegendNANA
21:00 -5.5 -6.4 94 0.0 29 8   96.55   -9 LegendNANA
22:00 -3.3 -5.2 87 0.0 28 23   96.58   -10 LegendNANA
23:00 -3.3 -4.4 92 0.0 29 22   96.62   -10 LegendNANA

Notes on Data Quality.

Legend

  • E = Estimated
  • M = Missing
  • NA = Not Available*
  • [empty] = Indicates an unobserved value
Date modified: